When you browse on this site, cookies collect data to enhance your experience and personalize the content and advertising you see.
Visit our Privacy Policy to learn more. By continuing to use the site, you agree to this use of cookies and data.

Tiempo cada hora Masvingo

Hoy, 10 Agosto, Lunes

Tiempo Temperatura Precipitaciones Viento Presión Humedad
00:00 +14°C° 0 mm 1 mps 672 mmHg 32%
01:00 +13°C° 0 mm 1 mps 672 mmHg 33%
02:00 +13°C° 0 mm 1 mps 671 mmHg 34%
03:00 +13°C° 0 mm 1 mps 671 mmHg 35%
04:00 +13°C° 0 mm 1 mps 671 mmHg 36%
05:00 +12°C° 0 mm 1 mps 670 mmHg 37%
06:00 +14°C° 0 mm 1 mps 671 mmHg 34%
07:00 +16°C° 0 mm 1 mps 672 mmHg 31%
08:00 +19°C° 0 mm 1 mps 673 mmHg 28%
09:00 +21°C° 0 mm 2 mps 673 mmHg 24%
10:00 +25°C° 0 mm 3 mps 674 mmHg 20%
11:00 +29°C° 0 mm 5 mps 675 mmHg 15%
12:00 +29°C° 0 mm 5 mps 674 mmHg 15%
13:00 +29°C° 0 mm 5 mps 673 mmHg 14%
14:00 +29°C° 0 mm 5 mps 673 mmHg 14%
15:00 +29°C° 0 mm 4 mps 673 mmHg 15%
16:00 +28°C° 0 mm 4 mps 673 mmHg 16%
17:00 +27°C° 0 mm 3 mps 673 mmHg 17%
18:00 +25°C° 0 mm 3 mps 673 mmHg 20%
19:00 +21°C° 0 mm 2 mps 673 mmHg 23%
20:00 +19°C° 0 mm 2 mps 673 mmHg 26%
21:00 +18°C° 0 mm 2 mps 673 mmHg 28%
22:00 +18°C° 0 mm 3 mps 673 mmHg 30%
23:00 +17°C° 0 mm 3 mps 673 mmHg 32%

Mañana, 11 Agosto, Martes

Tiempo Temperatura Precipitaciones Viento Presión Humedad
00:00 +16°C° 0 mm 3 mps 673 mmHg 37%
01:00 +14°C° 0 mm 3 mps 673 mmHg 41%
02:00 +14°C° 0 mm 2 mps 672 mmHg 46%
03:00 +13°C° 0 mm 2 mps 672 mmHg 55%
04:00 +12°C° 0 mm 2 mps 672 mmHg 64%
05:00 +11°C° 0 mm 1 mps 672 mmHg 72%
06:00 +12°C° 0 mm 1 mps 673 mmHg 72%
07:00 +13°C° 0 mm 1 mps 674 mmHg 72%
08:00 +14°C° 0 mm 1 mps 675 mmHg 72%
09:00 +16°C° 0 mm 2 mps 675 mmHg 60%
10:00 +19°C° 0 mm 2 mps 676 mmHg 48%
11:00 +22°C° 0 mm 3 mps 676 mmHg 36%
12:00 +24°C° 0 mm 3 mps 676 mmHg 32%
13:00 +25°C° 0 mm 3 mps 675 mmHg 27%
14:00 +27°C° 0 mm 3 mps 674 mmHg 22%
15:00 +26°C° 0 mm 3 mps 674 mmHg 24%
16:00 +25°C° 0 mm 4 mps 674 mmHg 26%
17:00 +23°C° 0 mm 4 mps 673 mmHg 28%
18:00 +20°C° 0 mm 3 mps 673 mmHg 35%
19:00 +18°C° 0 mm 3 mps 673 mmHg 42%
20:00 +16°C° 0 mm 2 mps 673 mmHg 49%
21:00 +15°C° 0 mm 2 mps 673 mmHg 53%
22:00 +14°C° 0 mm 2 mps 673 mmHg 58%
23:00 +14°C° 0 mm 2 mps 673 mmHg 63%

Pasado mañana, 12 Agosto, Miércoles

Tiempo Temperatura Precipitaciones Viento Presión Humedad
00:00 +13°C° 0 mm 1 mps 673 mmHg 64%
01:00 +12°C° 0 mm 1 mps 672 mmHg 66%
02:00 +12°C° 0 mm 1 mps 672 mmHg 67%
03:00 +12°C° 0 mm 1 mps 672 mmHg 68%
04:00 +11°C° 0 mm 1 mps 672 mmHg 69%
05:00 +11°C° 0 mm 1 mps 672 mmHg 70%
06:00 +13°C° 0 mm 1 mps 672 mmHg 62%
07:00 +15°C° 0 mm 1 mps 673 mmHg 54%
08:00 +16°C° 0 mm 1 mps 674 mmHg 47%
09:00 +21°C° 0 mm 1 mps 674 mmHg 36%
10:00 +24°C° 0 mm 1 mps 675 mmHg 25%
11:00 +27°C° 0 mm 2 mps 675 mmHg 14%
12:00 +28°C° 0 mm 3 mps 675 mmHg 12%
13:00 +29°C° 0 mm 3 mps 674 mmHg 11%
14:00 +29°C° 0 mm 4 mps 673 mmHg 10%
15:00 +28°C° 0 mm 3 mps 673 mmHg 11%
16:00 +27°C° 0 mm 3 mps 673 mmHg 13%
17:00 +26°C° 0 mm 3 mps 673 mmHg 14%
18:00 +24°C° 0 mm 2 mps 673 mmHg 17%
19:00 +20°C° 0 mm 2 mps 672 mmHg 19%
20:00 +19°C° 0 mm 1 mps 672 mmHg 22%
21:00 +18°C° 0 mm 1 mps 672 mmHg 23%
22:00 +16°C° 0 mm 1 mps 673 mmHg 24%
23:00 +16°C° 0 mm 1 mps 673 mmHg 25%

13 Agosto, Jueves

Tiempo Temperatura Precipitaciones Viento Presión Humedad
00:00 +15°C° 0 mm 1 mps 672 mmHg 26%
01:00 +15°C° 0 mm 1 mps 672 mmHg 26%
02:00 +13°C° 0 mm 0 mps 671 mmHg 27%
03:00 +13°C° 0 mm 0 mps 671 mmHg 28%
04:00 +13°C° 0 mm 0 mps 671 mmHg 29%
05:00 +12°C° 0 mm 0 mps 671 mmHg 29%
06:00 +14°C° 0 mm 0 mps 672 mmHg 27%
07:00 +19°C° 0 mm 1 mps 673 mmHg 24%
08:00 +21°C° 0 mm 1 mps 674 mmHg 21%
09:00 +24°C° 0 mm 2 mps 674 mmHg 18%
10:00 +27°C° 0 mm 3 mps 675 mmHg 15%
11:00 +29°C° 0 mm 4 mps 675 mmHg 12%
12:00 +30°C° 0 mm 4 mps 675 mmHg 12%
13:00 +30°C° 0 mm 5 mps 674 mmHg 11%
14:00 +32°C° 0 mm 5 mps 674 mmHg 11%
15:00 +30°C° 0 mm 4 mps 673 mmHg 12%
16:00 +29°C° 0 mm 4 mps 673 mmHg 13%
17:00 +28°C° 0 mm 3 mps 673 mmHg 14%
18:00 +25°C° 0 mm 3 mps 673 mmHg 17%
19:00 +22°C° 0 mm 3 mps 673 mmHg 20%
20:00 +19°C° 0 mm 2 mps 673 mmHg 23%
21:00 +19°C° 0 mm 2 mps 673 mmHg 25%
22:00 +18°C° 0 mm 2 mps 673 mmHg 27%
23:00 +17°C° 0 mm 2 mps 673 mmHg 28%

14 Agosto, Viernes

Tiempo Temperatura Precipitaciones Viento Presión Humedad
00:00 +17°C° 0 mm 2 mps 673 mmHg 30%
01:00 +16°C° 0 mm 2 mps 673 mmHg 32%
02:00 +15°C° 0 mm 2 mps 673 mmHg 34%
03:00 +14°C° 0 mm 2 mps 673 mmHg 44%
04:00 +12°C° 0 mm 3 mps 673 mmHg 55%
05:00 +11°C° 0 mm 3 mps 673 mmHg 65%
06:00 +12°C° 0 mm 3 mps 673 mmHg 70%
07:00 +12°C° 0 mm 4 mps 674 mmHg 76%
08:00 +13°C° 0 mm 4 mps 675 mmHg 81%
09:00 +15°C° 0 mm 4 mps 675 mmHg 67%
10:00 +19°C° 0 mm 4 mps 675 mmHg 52%
11:00 +22°C° 0 mm 4 mps 676 mmHg 37%
12:00 +23°C° 0 mm 4 mps 675 mmHg 32%
13:00 +25°C° 0 mm 4 mps 675 mmHg 28%
14:00 +26°C° 0 mm 3 mps 674 mmHg 23%
15:00 +26°C° 0 mm 3 mps 674 mmHg 24%
16:00 +25°C° 0 mm 3 mps 673 mmHg 25%
17:00 +25°C° 0 mm 3 mps 673 mmHg 26%
18:00 +21°C° 0 mm 3 mps 672 mmHg 36%
19:00 +18°C° 0 mm 3 mps 672 mmHg 46%
20:00 +16°C° 0 mm 2 mps 672 mmHg 57%
21:00 +15°C° 0 mm 2 mps 672 mmHg 64%
22:00 +14°C° 0 mm 2 mps 671 mmHg 71%
23:00 +13°C° 0 mm 2 mps 671 mmHg 78%

15 Agosto, Sábado

Tiempo Temperatura Precipitaciones Viento Presión Humedad
00:00 +13°C° 0 mm 2 mps 670 mmHg 74%
01:00 +12°C° 0 mm 2 mps 670 mmHg 71%
02:00 +12°C° 0 mm 2 mps 670 mmHg 68%
03:00 +12°C° 0 mm 2 mps 669 mmHg 66%
04:00 +11°C° 0 mm 1 mps 669 mmHg 64%
05:00 +11°C° 0 mm 1 mps 669 mmHg 62%
06:00 +13°C° 0 mm 2 mps 670 mmHg 54%
07:00 +15°C° 0 mm 2 mps 671 mmHg 46%
08:00 +18°C° 0 mm 2 mps 671 mmHg 37%
09:00 +21°C° 0 mm 2 mps 672 mmHg 30%
10:00 +26°C° 0 mm 2 mps 672 mmHg 22%
11:00 +29°C° 0 mm 2 mps 672 mmHg 14%
12:00 +31°C° 0 mm 1 mps 672 mmHg 12%
13:00 +32°C° 0 mm 1 mps 671 mmHg 10%
14:00 +32°C° 0 mm 0 mps 671 mmHg 8%
15:00 +32°C° 0 mm 1 mps 670 mmHg 9%
16:00 +31°C° 0 mm 1 mps 669 mmHg 10%
17:00 +29°C° 0 mm 1 mps 669 mmHg 11%
18:00 +27°C° 0 mm 1 mps 668 mmHg 13%
19:00 +24°C° 0 mm 2 mps 668 mmHg 15%
20:00 +20°C° 0 mm 2 mps 668 mmHg 17%
21:00 +20°C° 0 mm 2 mps 668 mmHg 18%
22:00 +19°C° 0 mm 2 mps 668 mmHg 18%
23:00 +18°C° 0 mm 3 mps 668 mmHg 19%
Mostrar más